GFSNIL_sfc_30mbdewp_000.txt.gz
Dewpoint
27 24 21 21 17 15 13 14 12 11 10 10 11 12 13 14 14 14 14 13 13 14
27 24 21 19 16 14 14 12 10 9 10 11 12 12 13 14 13 14 14 14 14 14
24 21 17 14 13 11 9 9 9 10 11 12 12 13 13 13 14 14 15 15 14 14
16 14 12 10 10 8 9 9 10 11 12 12 13 14 13 13 14 15 15 16 16 16
12 10 8 8 9 9 9 11 11 12 13 13 14 13 12 14 16 16 16 16 17 17
9 9 9 9 10 11 11 11 12 13 13 13 13 12 12 16 17 17 17 17 17 18
9 10 10 12 12 11 11 11 13 14 13 13 12 11 14 19 19 18 17 17 18 19
11 12 13 12 11 11 12 14 15 13 13 13 11 10 19 20 21 18 18 18 18 19
13 14 13 11 10 11 13 14 14 13 13 12 12 17 20 21 21 19 18 18 19 20
14 13 11 10 10 12 13 13 13 12 12 12 12 18 19 20 21 19 19 19 20 20
13 11 10 9 11 12 13 13 12 12 12 12 12 19 19 20 21 20 20 20 20 20
12 10 9 10 12 12 12 12 12 12 12 13 15 18 19 21 20 20 20 20 21 22
10 9 10 12 12 12 12 12 12 13 14 16 15 18 20 21 21 21 21 21 23 23
10 12 12 12 12 11 12 13 13 14 15 15 16 18 20 21 21 21 21 19 22 23

GFSNIL_sfc_30mbdewp_003.txt.gz
Dewpoint
24 22 21 20 17 15 15 14 13 12 12 13 14 15 15 16 16 16 16 16 15 15
23 22 21 18 17 16 15 12 11 12 12 14 14 14 15 14 14 15 16 16 16 15
23 22 19 16 15 13 11 10 11 12 13 14 14 14 14 14 15 15 16 16 16 16
21 18 15 13 11 10 9 10 11 12 13 14 13 13 12 13 15 16 17 17 17 17
16 13 11 10 9 9 10 11 12 13 14 13 13 11 11 15 17 17 17 17 18 18
11 10 9 9 10 11 11 12 14 14 13 12 12 10 12 16 18 18 18 18 17 17
10 10 10 11 11 11 12 14 14 13 13 12 11 10 14 19 19 20 19 19 18 18
12 13 13 12 12 13 15 15 14 13 12 12 11 10 20 21 20 20 19 19 18 19
14 14 12 12 13 15 15 14 13 12 12 12 11 18 21 21 20 20 19 19 19 20
14 12 11 12 14 14 13 13 11 11 12 11 12 18 20 20 20 20 20 20 20 20
12 11 11 12 12 12 12 11 11 11 12 13 13 19 19 21 20 20 20 21 21 21
11 10 12 12 12 12 11 11 11 12 13 14 16 18 20 21 20 20 20 21 21 22
10 11 12 11 11 11 11 12 12 13 15 17 15 18 20 20 20 20 20 21 21 22
12 12 11 11 11 11 12 12 13 14 15 16 17 17 19 20 20 20 20 20 20 21

GFSNIL_sfc_30mbdewp_006.txt.gz
Dewpoint
32 31 25 24 23 21 20 17 15 14 13 13 14 16 17 17 17 16 15 17 17 16
33 29 27 24 23 21 18 15 14 13 13 14 14 15 16 14 13 14 16 17 17 17
31 28 24 22 20 18 14 12 13 13 13 14 15 15 14 13 14 15 16 16 17 16
24 23 21 20 18 15 12 12 12 12 12 14 14 13 12 13 15 16 17 17 17 17
23 20 18 15 14 12 11 11 11 12 14 13 12 11 11 14 16 17 17 17 17 17
20 18 15 13 11 11 11 12 13 14 13 12 12 11 11 14 16 17 18 17 17 14
18 15 13 12 11 12 12 14 14 13 13 13 11 11 12 17 18 18 18 19 18 15
15 14 13 12 12 14 15 14 13 13 12 12 12 10 19 20 20 18 18 17 17 16
15 14 14 13 14 16 15 14 13 12 12 12 10 18 21 22 19 17 17 16 16 17
15 14 14 14 15 15 13 13 12 11 11 11 11 18 21 21 20 18 17 18 18 18
14 13 13 13 13 12 11 11 10 11 11 11 11 20 20 21 19 17 17 18 18 18
12 12 13 12 12 11 10 10 10 11 11 10 11 16 20 21 18 16 17 17 17 19
12 13 13 12 10 11 11 11 10 10 10 12 11 14 19 20 18 17 16 16 17 18
12 11 11 10 10 10 10 10 8 8 9 11 12 13 18 20 20 17 17 17 17 19

GFSNIL_sfc_30mbdewp_009.txt.gz
Dewpoint
43 41 35 28 25 25 24 23 21 20 19 19 18 18 19 20 20 18 18 19 20 19
41 36 31 28 26 25 24 22 19 18 17 16 16 17 18 17 16 16 17 19 19 20
34 31 29 27 25 24 21 18 18 17 17 16 16 16 16 16 15 15 17 18 18 18
32 29 26 25 23 21 17 17 16 16 15 15 16 15 14 14 15 16 17 18 19 19
29 26 25 22 19 17 16 15 14 14 14 15 14 12 12 13 15 16 17 17 19 19
25 25 22 18 16 15 14 14 14 15 15 13 13 12 12 12 14 16 17 18 17 17
23 20 18 16 15 15 15 15 15 15 14 13 12 13 12 15 18 18 19 19 18 17
21 18 16 15 15 16 16 15 15 14 13 13 12 10 18 19 20 19 18 17 16 16
18 17 16 16 17 17 16 15 14 13 12 12 10 19 22 23 20 18 16 16 15 16
17 17 17 17 17 16 15 14 13 12 11 10 11 18 21 22 21 18 17 18 19 19
17 18 17 16 15 14 13 12 11 10 10 11 12 18 19 21 20 16 16 18 17 17
16 16 16 14 13 12 11 10 9 10 11 10 9 15 18 21 19 16 16 16 16 17
15 15 15 14 12 11 11 10 10 10 9 9 10 11 16 20 18 17 16 16 17 17
14 13 12 11 10 9 10 10 8 6 7 8 10 11 15 18 20 18 19 18 18 19

GFSNIL_sfc_30mbdewp_012.txt.gz
Dewpoint
44 37 35 34 30 26 25 25 27 24 23 22 22 22 22 22 21 20 20 19 21 21
42 40 35 33 30 25 25 24 24 22 20 19 19 19 20 20 19 17 19 19 21 21
42 38 35 31 28 26 24 21 21 19 18 18 18 17 18 17 16 16 18 20 18 19
37 34 31 28 25 23 21 20 19 18 17 17 17 16 15 15 16 16 18 19 19 20
33 29 28 24 21 19 19 18 18 17 17 17 15 13 13 13 15 16 17 18 18 19
27 25 24 21 20 19 17 16 16 16 16 14 14 13 12 13 14 16 17 18 18 18
26 24 21 19 18 17 16 16 17 16 15 14 14 13 14 17 19 20 20 20 20 19
24 21 18 19 19 19 17 16 15 15 14 14 13 16 19 22 22 21 19 18 18 17
19 18 18 18 18 17 16 15 15 14 13 13 12 20 23 24 22 21 19 18 18 18
26 24 21 18 17 16 15 15 13 12 11 11 18 21 21 22 22 21 20 19 18 19
30 23 19 17 16 15 14 13 12 11 11 13 17 19 20 22 21 19 18 18 17 17
26 18 17 14 13 12 11 11 11 12 12 10 12 17 17 20 20 19 18 18 17 18
17 16 14 13 12 12 12 11 11 10 10 13 10 13 16 19 20 19 19 19 19 20
15 13 12 11 11 11 11 10 8 7 7 8 11 11 13 16 19 20 20 20 20 20

GFSNIL_sfc_30mbdewp_015.txt.gz
Dewpoint
47 44 42 39 36 33 31 30 28 27 26 26 25 24 24 23 21 20 20 19 21 21
44 41 38 37 34 34 31 29 26 26 24 24 24 23 22 21 16 17 20 19 21 21
42 39 37 34 32 31 30 27 26 25 24 21 20 20 20 18 17 16 18 20 19 19
40 37 35 34 31 31 28 27 23 21 20 20 18 18 18 17 17 16 17 19 19 20
37 35 33 32 31 31 28 25 24 20 19 18 16 15 14 14 15 16 17 18 18 19
34 33 32 30 29 26 23 23 22 19 17 15 14 13 13 13 15 17 18 18 18 18
32 29 27 26 23 21 22 21 17 17 16 15 14 14 17 20 21 21 21 20 20 19
25 24 23 23 23 23 21 17 16 15 15 15 16 17 20 22 22 21 20 19 18 18
23 24 25 26 27 24 18 16 15 14 14 12 18 24 25 24 22 21 20 19 19 19
26 28 27 26 25 18 16 14 14 13 13 16 23 23 23 23 22 20 19 19 18 19
28 27 27 25 21 18 16 14 12 11 13 16 22 22 21 23 20 20 19 18 18 18
34 33 32 31 26 22 21 14 11 13 12 16 20 17 19 21 20 19 19 19 20 21
31 25 20 20 14 12 12 12 12 11 10 14 10 14 15 18 20 19 20 20 21 22
25 16 12 12 12 12 11 9 7 7 8 9 11 11 14 15 19 19 20 21 20 21

GFSNIL_sfc_30mbdewp_018.txt.gz
Dewpoint
54 51 49 47 44 40 37 36 35 32 29 28 27 25 24 22 21 20 20 19 20 21
49 48 47 45 41 40 39 37 34 30 29 28 26 25 23 22 20 20 20 20 21 21
49 48 46 44 41 38 38 36 32 29 28 27 24 23 24 22 19 18 20 21 20 20
47 45 44 42 39 36 36 32 28 28 27 25 23 22 20 19 17 16 18 20 19 19
43 42 40 38 36 36 31 29 28 28 25 23 23 22 17 17 17 16 17 18 19 19
42 41 39 36 33 31 28 27 27 27 26 25 22 16 15 16 16 17 17 18 18 18
40 39 35 32 32 29 27 28 25 25 22 22 20 14 16 18 20 21 21 20 19 19
34 33 30 28 27 27 27 25 22 23 20 19 19 21 22 22 21 20 19 19 18 19
27 27 26 26 26 26 26 26 26 25 25 23 27 28 26 23 21 20 18 18 19 19
28 28 27 26 26 27 29 30 29 24 18 22 26 25 25 25 20 19 19 18 18 18
30 30 30 29 29 27 25 22 20 18 19 23 24 25 24 23 20 19 19 19 19 19
32 32 32 32 31 31 30 29 27 25 21 23 23 21 22 22 19 19 19 20 20 22
34 33 32 32 32 31 30 25 17 12 13 15 14 18 17 21 19 18 19 20 21 22
31 30 30 26 19 14 13 10 9 8 9 11 11 12 15 16 18 18 20 20 20 21

GFSNIL_sfc_30mbdewp_021.txt.gz
Dewpoint
60 56 54 52 51 49 45 42 39 39 36 33 30 28 26 24 22 21 20 19 20 21
58 55 53 51 50 48 45 41 40 37 34 32 30 29 27 25 21 21 21 21 21 22
56 53 51 48 47 43 42 39 37 34 33 32 30 28 26 24 22 22 23 23 22 21
52 51 48 46 43 41 41 39 36 34 32 29 28 27 26 24 21 21 21 21 20 19
50 48 47 45 42 41 40 38 34 30 28 27 26 25 25 25 28 27 22 19 20 20
47 46 45 43 40 40 37 34 31 29 27 27 29 30 30 29 26 20 18 18 19 19
44 43 41 40 40 36 34 31 28 28 27 27 28 28 28 28 24 21 20 21 20 20
42 40 38 37 34 33 31 29 27 26 27 28 30 30 30 28 24 20 19 19 19 19
34 34 33 32 31 27 26 27 28 29 29 30 31 32 30 25 22 19 18 17 19 19
32 31 31 31 31 31 31 31 30 30 30 32 34 33 30 26 21 19 18 18 18 18
31 32 32 31 31 31 31 29 29 30 31 31 32 32 31 26 19 18 19 19 19 19
34 33 32 31 31 31 31 31 30 31 31 31 32 31 29 22 19 18 18 20 20 22
34 33 32 32 32 32 33 32 31 30 30 30 24 23 20 23 19 18 18 20 21 22
33 33 33 32 32 31 30 24 15 11 12 11 13 13 17 17 19 18 20 20 20 21

GFSNIL_sfc_30mbdewp_024.txt.gz
Dewpoint
60 59 57 55 56 54 51 49 47 43 42 41 37 35 33 31 29 26 23 20 21 21
59 57 56 54 54 53 51 50 45 44 42 39 36 33 32 31 27 25 22 21 22 22
55 57 55 53 52 52 50 46 44 43 40 38 35 33 31 27 24 23 26 28 26 25
50 53 53 52 50 48 45 44 43 41 39 37 34 30 29 26 25 24 24 24 23 23
47 50 50 49 46 43 42 40 40 39 37 34 30 27 25 24 25 26 26 26 26 26
49 49 48 47 43 42 40 39 37 36 33 30 28 27 28 28 30 32 32 31 30 26
47 47 46 43 42 40 38 35 33 30 29 29 29 30 30 29 27 26 26 25 23 21
43 42 41 40 37 34 34 33 32 33 33 34 33 32 31 31 30 30 29 26 24 23
37 36 35 34 33 31 31 31 32 32 33 33 35 36 33 28 26 26 26 26 27 25
32 31 33 33 33 32 33 33 33 34 33 34 35 35 34 32 30 29 28 24 19 18
33 33 34 34 34 34 34 33 33 33 34 35 36 34 33 31 27 20 19 20 19 22
34 33 33 32 32 32 32 32 32 32 32 32 32 34 32 27 21 18 18 20 21 22
33 33 32 32 32 32 32 31 31 31 31 33 31 32 32 26 19 17 18 20 21 22
33 32 32 32 32 31 30 28 28 27 25 25 19 19 18 23 19 19 20 21 20 21

GFSNIL_sfc_30mbdewp_027.txt.gz
Dewpoint
56 59 57 57 58 57 56 55 54 51 49 48 46 44 41 40 38 36 33 27 24 23
55 57 56 56 56 57 55 54 53 50 48 47 46 43 40 39 36 33 29 26 26 25
47 54 56 54 54 54 54 52 49 48 47 46 44 42 40 37 32 28 27 28 26 29
44 46 51 54 52 53 51 49 47 46 45 43 41 39 39 36 29 26 27 29 29 27
46 47 49 50 51 50 49 46 45 43 42 41 38 37 34 29 27 27 28 30 30 30
47 48 48 48 47 45 44 43 41 40 39 36 34 32 29 29 30 32 32 33 33 31
45 46 47 46 44 42 41 39 38 35 32 30 30 30 31 31 31 30 29 28 27 28
41 41 40 38 37 36 34 33 32 32 32 32 32 32 32 32 32 31 30 30 30 30
35 36 34 34 34 34 35 34 34 34 34 35 37 37 36 33 32 31 30 29 30 30
34 34 34 35 35 34 34 35 35 36 36 36 37 36 34 32 31 30 30 29 26 27
34 34 34 34 34 34 35 35 35 35 36 36 36 36 34 31 27 26 26 26 27 27
33 33 33 32 32 33 32 32 32 32 32 32 33 33 32 28 26 26 26 24 21 23
33 32 32 31 31 32 32 31 31 31 32 33 32 33 30 24 19 21 22 21 21 22
32 32 31 31 31 30 30 29 27 27 27 24 24 29 29 22 19 19 21 20 20 21

GFSNIL_sfc_30mbdewp_030.txt.gz
Dewpoint
45 44 51 55 57 57 57 58 58 57 57 57 56 55 52 49 46 42 39 38 33 30
41 49 53 53 55 56 57 58 58 57 56 55 55 54 52 50 48 45 43 40 35 30
43 44 47 53 52 52 54 55 55 56 55 53 52 51 50 48 47 43 40 36 33 32
44 45 45 45 48 50 51 53 53 53 52 50 49 47 46 44 42 37 35 35 35 33
46 47 48 47 48 50 50 51 50 49 48 47 46 44 43 39 37 37 36 35 34 33
45 47 48 48 49 49 48 47 47 46 45 43 42 40 38 34 33 34 34 34 34 33
44 45 46 46 46 45 45 43 43 41 39 37 35 32 32 33 33 34 34 34 33 31
38 39 39 38 37 36 36 34 34 33 33 32 32 32 32 32 31 31 30 31 32 32
35 36 36 36 36 36 35 35 35 35 34 35 35 35 34 33 33 32 32 31 31 31
35 35 35 35 35 35 36 36 37 37 37 37 38 38 37 34 32 32 31 30 29 29
34 34 34 34 34 35 35 36 36 35 36 36 37 36 34 31 30 29 28 26 26 26
33 33 33 32 32 32 32 32 31 32 32 31 31 33 32 30 29 27 27 27 25 23
33 33 32 32 31 32 32 31 32 31 31 32 30 32 30 25 23 22 22 22 21 22
33 32 32 32 32 31 31 30 30 29 28 30 31 29 25 22 20 20 19 17 17 19

GFSNIL_sfc_30mbdewp_033.txt.gz
Dewpoint
40 44 43 43 51 54 56 56 58 59 60 60 59 59 58 57 54 51 49 47 44 39
40 41 44 49 51 52 53 54 55 58 58 58 58 58 57 56 53 51 50 46 43 41
42 43 43 43 47 50 49 50 53 55 56 57 56 56 55 54 52 51 49 47 41 36
43 44 44 44 43 43 48 49 51 53 53 53 53 52 51 50 49 47 41 39 37 36
43 45 46 46 47 48 49 49 50 50 50 50 49 48 47 45 43 40 38 37 36 36
43 44 45 46 47 47 48 48 48 47 47 46 45 44 43 40 39 38 38 37 36 35
39 40 41 42 42 43 43 43 43 41 41 39 38 35 35 36 36 35 35 35 35 35
37 37 37 37 37 37 36 35 35 35 34 34 34 34 35 34 33 33 33 33 34 33
36 36 36 36 36 36 37 37 36 36 35 35 35 36 35 34 33 33 32 31 32 34
35 35 36 36 36 37 37 37 38 38 38 37 37 37 36 34 33 32 31 31 31 31
34 34 34 34 34 33 34 34 33 33 34 35 36 36 35 32 30 29 30 30 30 29
34 33 33 32 32 32 32 31 31 32 31 31 32 34 33 31 30 29 29 28 28 24
34 33 32 32 32 32 32 32 32 31 31 31 31 31 30 30 29 28 24 22 21 21
34 33 33 33 32 31 31 30 30 29 29 31 30 27 25 22 20 19 18 16 16 20

GFSNIL_sfc_30mbdewp_036.txt.gz
Dewpoint
41 42 43 46 47 47 53 55 56 59 59 60 60 60 60 59 58 55 51 50 49 47
43 43 43 44 44 49 53 53 54 54 57 59 59 59 59 58 58 56 53 52 50 45
42 44 44 45 44 44 47 49 52 53 54 55 57 57 57 56 55 54 52 50 48 43
42 44 46 46 47 48 49 50 50 51 51 52 52 52 52 51 51 49 46 45 43 40
41 42 44 45 47 48 48 49 49 49 49 49 49 49 48 46 45 44 42 40 39 38
38 39 40 39 39 40 43 45 44 43 43 43 43 44 42 41 41 40 39 39 38 37
37 38 38 38 38 37 36 35 35 35 35 35 35 36 37 37 37 37 37 36 36 36
36 37 37 37 37 37 36 35 35 35 35 35 36 36 35 35 35 35 34 34 35 35
36 36 37 37 37 38 38 38 38 37 37 37 37 37 36 34 33 33 33 32 32 34
35 35 35 35 35 35 35 36 36 37 37 37 37 37 36 34 32 32 31 31 32 32
34 34 34 34 34 33 34 33 33 33 34 35 36 36 35 32 30 30 30 30 30 28
34 33 33 32 32 32 32 31 31 31 31 32 34 34 32 30 30 29 29 28 27 26
34 33 32 32 32 31 31 30 31 31 31 30 30 30 29 29 28 26 24 24 22 21
34 33 33 32 31 31 30 28 27 28 30 30 27 26 25 23 22 18 17 17 18 23

GFSNIL_sfc_30mbdewp_039.txt.gz
Dewpoint
42 43 44 44 44 45 50 53 57 58 59 59 59 59 59 59 59 57 55 53 50 48
40 43 44 45 45 45 46 51 53 54 54 55 57 58 58 58 58 57 55 53 52 50
43 45 46 47 47 48 49 51 52 52 52 53 54 56 56 55 54 54 52 51 51 47
41 42 43 43 44 47 49 49 49 49 50 50 50 51 51 51 51 50 48 47 47 44
39 40 39 39 38 38 42 43 44 45 44 44 46 46 46 45 45 45 44 42 41 40
38 38 38 38 37 36 36 36 36 36 36 37 39 40 41 41 40 40 40 39 39 38
37 37 37 38 37 36 35 35 35 35 35 36 36 37 37 37 37 37 36 37 36 36
36 37 37 37 38 38 37 37 36 36 37 37 37 36 35 35 35 34 34 35 35 35
35 36 37 37 37 37 37 38 38 37 37 37 38 37 36 34 33 33 33 32 33 34
35 35 35 36 35 35 35 35 35 35 36 36 37 37 35 34 32 32 32 32 32 32
34 34 34 34 33 33 33 33 33 33 34 35 36 35 34 32 31 30 30 30 29 28
34 33 33 32 32 32 30 30 31 32 32 32 33 32 32 30 28 27 26 27 27 26
34 33 32 32 31 32 31 31 30 29 29 29 27 28 29 27 26 23 23 24 21 23
34 33 32 31 31 30 28 27 27 28 29 28 26 26 26 24 21 18 18 18 19 23

GFSNIL_sfc_30mbdewp_042.txt.gz
Dewpoint
42 43 45 45 45 44 45 49 54 57 58 57 58 59 58 57 57 58 57 56 53 51
43 44 46 47 47 48 49 50 52 53 52 53 54 56 57 56 56 57 56 55 54 52
41 42 43 43 44 47 49 50 50 50 50 51 51 53 53 53 52 52 51 51 52 50
39 40 40 38 38 42 44 45 47 47 47 47 47 47 47 47 46 47 46 45 46 44
38 38 39 38 37 37 38 37 38 39 40 42 43 43 43 43 42 43 42 41 41 39
37 37 38 37 36 36 36 35 35 36 36 37 38 39 39 39 39 39 38 38 38 38
37 37 37 38 37 36 36 35 36 36 36 36 36 36 37 36 36 36 36 36 36 36
37 37 38 38 38 38 38 37 37 37 37 37 37 36 35 35 35 35 34 35 36 37
35 36 36 37 37 36 36 36 36 36 36 35 36 36 36 34 33 34 33 33 33 34
35 35 35 36 35 34 34 35 34 35 35 35 36 36 35 34 32 31 31 31 31 31
35 34 35 34 33 33 33 33 33 33 34 35 36 35 34 32 30 29 28 27 27 26
34 34 33 32 32 31 31 31 31 32 31 30 30 29 29 27 25 24 24 25 24 23
34 34 32 32 31 31 31 30 29 28 27 28 25 28 27 25 24 21 21 20 21 26
34 32 32 31 31 28 27 27 28 28 28 25 26 26 25 25 22 18 18 19 20 22

GFSNIL_sfc_30mbdewp_045.txt.gz
Dewpoint
44 45 46 46 46 46 46 46 51 55 54 54 55 56 57 56 56 56 56 55 55 54
42 43 44 45 47 48 49 51 51 51 51 51 53 54 55 54 53 53 53 53 53 53
40 41 40 40 42 45 46 47 48 48 48 48 48 49 49 48 48 48 47 47 47 46
39 39 39 38 38 39 39 41 43 44 45 45 44 45 45 44 46 45 44 43 43 41
38 38 38 37 36 37 37 37 37 38 39 40 41 41 41 41 41 41 41 40 40 39
37 37 38 37 36 36 36 36 36 36 36 37 37 37 37 37 37 38 37 37 37 37
37 37 38 38 37 37 37 36 37 37 37 36 35 36 35 35 35 35 35 36 36 36
37 38 38 38 38 37 37 37 37 36 36 36 36 36 34 34 34 35 34 34 35 37
36 36 37 36 36 36 35 35 35 35 35 35 36 36 36 34 34 34 33 33 33 34
35 35 36 35 34 34 34 34 35 36 36 36 36 36 35 33 31 30 29 28 28 28
35 35 35 34 33 33 33 33 33 33 34 34 35 34 33 30 27 25 25 25 24 24
35 34 34 32 32 31 31 31 31 30 28 27 27 28 27 24 23 21 21 21 24 23
35 34 32 32 31 31 30 29 27 26 26 28 25 27 25 22 22 19 18 18 20 25
34 33 32 31 30 29 28 27 27 26 24 24 26 25 25 26 23 19 19 19 20 22

GFSNIL_sfc_30mbdewp_048.txt.gz
Dewpoint
43 45 46 46 46 47 48 49 50 52 51 52 54 55 56 56 56 56 55 54 54 53
41 42 42 42 45 47 47 48 49 49 50 50 51 52 53 52 52 51 50 50 50 50
39 40 40 39 41 42 42 44 45 46 47 47 47 47 48 48 48 47 47 46 45 44
38 39 39 38 37 38 38 39 40 42 43 42 43 43 44 44 46 45 44 43 42 41
38 38 38 37 36 36 36 36 37 38 39 39 39 39 39 40 39 40 39 39 39 38
37 37 37 37 36 36 36 37 37 36 36 36 36 36 36 36 36 36 36 36 36 36
37 37 38 38 37 37 37 37 36 36 36 35 35 35 35 35 35 35 36 36 37 36
37 38 38 37 37 37 37 36 36 36 36 36 36 35 34 35 35 35 35 35 35 37
36 37 37 36 36 35 35 35 35 35 35 35 35 36 36 34 34 33 32 31 31 33
36 36 35 35 35 34 34 35 35 36 36 35 36 35 34 32 29 27 25 25 26 27
35 35 34 34 33 33 33 33 33 32 32 32 33 33 31 28 24 23 23 23 22 23
35 35 34 33 32 32 32 31 30 27 26 27 27 27 26 23 21 20 20 21 25 25
35 34 33 32 31 31 31 29 26 25 24 28 25 27 24 21 19 16 17 18 20 24
34 33 33 32 31 30 28 27 26 25 23 23 26 25 25 26 22 19 19 19 21 22

GFSNIL_sfc_30mbdewp_051.txt.gz
Dewpoint
43 44 45 46 46 47 48 49 51 51 51 52 53 55 56 56 56 57 55 54 54 54
41 42 42 42 44 47 46 47 48 48 49 49 50 52 53 53 52 52 51 51 52 50
40 40 40 40 40 41 40 42 44 45 46 46 46 47 49 49 49 48 48 47 46 45
39 39 39 38 38 38 38 38 40 42 42 42 42 43 45 45 46 45 44 43 43 42
38 38 38 37 37 37 37 37 38 38 39 39 39 39 40 40 40 40 39 39 39 38
37 37 38 37 36 37 37 37 37 36 36 36 37 37 36 36 37 37 36 36 36 36
37 37 38 38 37 37 37 37 36 36 36 35 35 36 36 36 37 36 37 37 37 36
38 38 38 37 37 37 36 36 36 36 36 36 36 35 35 36 36 35 35 35 36 37
37 37 37 36 36 36 36 36 36 35 36 36 36 36 36 35 34 33 33 32 32 32
36 36 36 36 35 35 35 36 36 36 36 36 35 35 34 31 28 27 26 27 28 28
36 35 35 35 34 34 34 34 33 32 33 33 33 33 31 27 25 24 24 24 24 26
36 35 34 34 33 33 33 31 29 28 28 27 28 27 26 23 22 22 22 24 26 25
36 35 34 33 32 32 32 30 27 26 26 28 26 26 24 22 19 18 17 19 20 26
35 34 33 32 32 31 30 27 26 25 24 24 26 26 27 26 21 19 18 19 20 21

GFSNIL_sfc_30mbdewp_054.txt.gz
Dewpoint
43 44 44 45 45 46 47 48 50 51 52 52 53 55 57 58 58 57 57 57 56 55
41 42 42 43 45 47 47 47 48 50 50 50 51 53 53 54 53 53 53 53 53 52
40 41 41 41 42 43 43 44 45 47 47 47 48 49 51 50 50 49 49 49 48 48
39 40 40 40 40 41 41 41 42 43 44 44 45 46 48 47 47 46 45 45 45 44
38 39 39 39 39 39 39 39 40 41 41 41 41 42 44 43 43 43 42 42 42 41
38 38 39 39 38 38 39 39 38 39 39 39 39 39 39 40 39 39 39 39 39 39
37 38 39 39 38 38 38 37 37 37 37 37 38 38 38 38 38 38 38 38 37 37
38 39 39 38 38 37 37 37 37 37 37 37 37 37 37 37 37 36 37 37 37 38
38 38 38 37 37 37 36 36 36 37 36 37 36 37 37 36 36 35 35 34 34 34
37 37 37 36 36 36 36 37 36 36 36 36 36 36 35 33 33 32 32 32 32 30
37 37 36 36 36 36 36 36 36 35 35 35 35 34 31 29 28 27 26 26 26 27
37 36 36 35 35 35 35 34 33 33 32 32 30 29 26 25 25 27 26 25 24 24
36 36 35 35 34 34 33 32 31 31 30 30 29 26 25 24 18 18 15 16 19 26
36 36 35 34 34 33 33 31 30 29 29 29 27 28 27 23 18 15 15 15 16 18

GFSNIL_sfc_30mbdewp_057.txt.gz
Dewpoint
44 44 44 44 45 44 45 46 48 49 50 51 52 54 55 57 57 57 58 58 57 56
42 43 43 43 44 45 46 46 47 49 50 50 51 52 53 54 53 53 53 53 53 52
41 41 42 42 42 43 43 44 45 47 48 48 49 49 51 51 50 50 50 49 49 49
40 40 40 40 40 41 41 42 43 44 45 45 45 46 49 48 48 47 47 47 46 45
39 39 39 39 39 39 39 40 41 41 42 42 43 43 45 45 45 45 44 44 44 43
38 38 38 39 39 39 39 39 39 39 40 40 40 41 41 42 41 41 41 41 40 40
37 38 38 39 39 39 39 38 38 38 38 38 39 39 39 39 39 39 38 38 38 38
38 38 39 39 39 38 38 37 37 37 37 38 37 38 38 38 38 38 38 38 38 38
38 39 39 38 38 38 37 37 37 37 37 37 36 38 38 37 37 37 36 35 35 35
38 38 38 38 37 37 37 37 37 37 36 36 35 37 36 36 35 35 35 35 34 31
37 37 37 37 37 37 37 37 37 37 36 34 35 34 32 31 30 29 28 28 28 28
37 37 37 37 37 36 36 35 35 35 34 34 33 31 28 27 27 28 27 25 24 24
37 37 36 37 36 36 35 34 33 32 32 31 30 27 25 25 20 19 16 17 22 26
37 37 37 36 35 35 33 32 32 31 30 30 28 25 25 22 17 15 14 15 16 19

GFSNIL_sfc_30mbdewp_060.txt.gz
Dewpoint
45 45 45 45 45 45 46 47 48 49 50 51 52 52 55 56 56 56 55 56 57 57
43 43 44 44 44 45 46 46 46 48 49 50 50 51 51 53 53 53 53 53 54 53
41 42 42 42 42 43 43 44 44 46 47 47 48 48 50 51 51 51 50 50 50 49
40 41 41 41 41 41 41 42 42 43 44 45 45 45 48 48 48 47 47 47 47 45
40 40 40 40 40 40 39 40 40 41 41 42 42 43 43 46 45 45 44 44 44 43
39 39 39 39 39 39 39 40 40 39 40 40 40 40 40 42 41 41 40 40 41 40
38 38 38 39 39 39 39 39 38 38 38 38 39 39 39 39 39 38 38 38 38 39
38 38 39 39 39 38 38 37 38 38 38 38 38 38 38 39 39 38 38 38 38 37
38 39 39 39 38 38 37 37 37 37 37 37 37 38 39 38 38 38 37 36 36 36
38 39 39 38 38 37 37 37 37 37 37 36 37 38 38 37 37 36 36 35 33 31
38 38 38 37 37 37 37 37 37 37 36 35 35 35 34 33 31 30 30 30 30 30
38 37 37 37 37 37 37 36 36 36 35 34 33 33 31 28 27 26 25 25 25 26
37 37 37 37 37 37 36 35 34 34 33 33 30 29 26 26 25 23 22 22 25 26
37 37 37 37 37 36 35 33 33 32 30 30 29 27 25 23 17 17 14 16 17 23

GFSNIL_sfc_30mbdewp_063.txt.gz
Dewpoint
45 45 45 45 45 45 46 47 49 49 49 50 51 52 53 54 55 55 55 54 55 55
44 44 44 44 45 46 47 46 46 47 48 49 50 50 51 51 52 53 53 53 54 53
43 43 43 43 43 44 44 44 44 45 46 47 47 48 49 50 51 51 51 51 50 50
42 42 42 41 42 42 42 42 42 43 43 44 44 44 45 48 48 48 48 47 48 46
41 41 40 40 40 40 40 41 41 41 41 42 42 42 43 46 46 46 45 45 45 43
40 39 39 39 40 39 39 40 40 39 40 40 40 40 40 43 43 42 42 42 42 41
39 39 39 39 39 39 39 39 38 38 38 39 39 39 39 39 39 38 38 38 39 39
38 38 39 39 39 38 38 38 38 38 38 38 38 39 39 39 39 38 38 38 38 38
38 38 39 39 38 38 37 37 37 37 37 37 37 39 40 39 38 38 37 37 38 38
38 38 39 38 38 37 36 36 37 37 37 36 38 39 40 39 38 37 36 36 34 32
38 38 38 38 37 37 36 36 36 37 37 36 36 37 37 36 35 35 34 34 31 29
38 38 37 37 37 37 37 37 37 37 35 34 34 34 34 30 28 28 28 27 26 28
38 37 37 37 37 37 37 36 36 35 35 34 33 33 30 27 25 23 23 24 25 29
37 37 37 37 37 37 36 35 34 34 33 32 31 29 26 26 22 20 18 18 19 24

GFSNIL_sfc_30mbdewp_066.txt.gz
Dewpoint
54 51 50 48 47 46 45 47 49 49 49 50 51 51 52 53 54 55 54 54 54 54
49 49 47 46 46 46 47 47 47 47 48 49 49 50 50 51 51 52 52 52 53 53
44 45 44 44 44 45 46 45 45 45 46 47 47 47 48 49 51 51 51 51 51 51
42 42 42 42 43 44 44 44 43 43 44 44 44 44 45 46 48 48 49 48 49 48
41 41 41 41 41 42 41 42 41 42 42 42 42 42 42 43 46 46 46 46 46 45
40 40 40 40 40 40 40 40 40 40 40 40 40 40 40 41 44 44 44 44 44 43
40 39 39 39 39 39 39 39 39 38 39 39 39 39 39 40 40 39 39 39 40 41
39 39 39 39 39 39 39 38 38 38 38 38 38 38 39 39 39 39 38 38 38 39
38 38 39 39 38 38 37 37 37 37 37 37 37 38 40 39 39 39 38 37 38 39
38 38 38 38 38 37 36 36 36 37 37 36 38 39 40 40 38 37 37 37 36 34
38 38 38 38 37 37 36 36 36 36 37 36 37 38 39 38 37 36 35 35 33 31
38 38 38 37 37 37 37 36 37 37 36 35 36 37 36 34 33 33 32 31 30 28
38 38 37 37 36 37 37 37 37 36 35 35 34 36 34 30 28 28 27 25 26 30
38 37 37 36 37 37 37 36 35 35 35 34 34 33 32 29 25 22 22 22 24 26

GFSNIL_sfc_30mbdewp_069.txt.gz
Dewpoint
58 56 56 55 54 53 51 50 50 50 49 49 50 51 51 52 52 53 54 53 53 53
53 53 52 52 52 51 50 49 49 49 48 49 49 50 50 50 50 51 51 51 51 52
46 47 47 48 47 47 47 47 47 46 47 47 47 47 47 48 49 50 50 50 50 51
43 43 43 43 44 45 45 45 44 44 44 44 44 44 44 45 45 48 48 49 49 49
42 42 42 41 42 43 43 42 42 42 42 42 42 42 42 42 43 45 46 47 47 47
41 41 41 40 41 41 41 41 41 40 40 40 41 40 40 40 41 43 44 45 45 45
40 40 40 40 40 40 40 39 39 39 39 39 39 39 39 39 39 39 40 40 41 42
40 40 39 39 39 39 39 39 38 38 38 38 38 38 38 39 39 39 39 39 39 40
39 39 39 38 38 38 38 37 37 37 37 37 37 38 39 40 39 39 38 38 39 40
39 38 38 38 38 37 37 36 36 36 37 36 36 39 40 41 39 38 38 37 37 36
39 38 38 38 37 37 36 36 35 36 36 36 37 39 40 40 37 37 36 36 34 33
39 38 37 37 37 36 36 35 35 36 37 36 35 38 38 36 35 35 34 34 32 30
39 38 37 37 37 36 36 36 36 36 37 36 35 37 36 33 31 32 31 27 27 32
38 38 37 37 36 36 36 36 36 36 35 35 35 34 37 34 28 29 28 26 25 27

GFSNIL_sfc_30mbdewp_072.txt.gz
Dewpoint
56 57 58 58 57 57 56 55 54 54 53 51 50 51 51 51 51 52 52 52 53 53
51 54 53 55 55 55 55 55 54 53 51 49 49 49 50 49 49 50 51 50 50 51
46 49 50 51 52 52 52 51 51 48 48 48 48 47 47 47 48 49 50 50 50 50
43 44 44 45 46 46 46 46 46 46 45 45 45 44 44 44 44 45 47 48 48 48
42 42 42 42 43 44 44 44 43 43 43 42 42 42 41 41 41 42 43 45 46 46
41 41 41 41 42 42 42 42 41 41 40 40 40 40 40 40 40 41 42 43 44 45
41 41 40 40 40 41 40 40 40 39 39 39 39 39 39 39 39 39 39 40 40 43
40 40 40 40 40 39 39 39 38 38 38 38 38 38 38 38 38 38 38 39 39 40
40 40 39 39 39 38 38 38 37 37 37 37 38 38 39 40 38 38 38 38 39 40
39 39 39 38 38 37 37 36 36 36 36 36 36 38 40 40 39 38 38 38 38 38
39 39 38 38 37 37 36 36 36 36 36 36 36 39 39 41 38 37 37 37 37 36
39 38 38 37 37 36 36 35 35 35 36 36 36 38 38 38 36 36 35 35 34 32
39 38 37 37 36 36 35 35 35 35 36 37 36 37 38 37 34 34 33 31 31 34
38 38 37 37 36 36 36 36 35 35 35 36 36 35 38 37 31 31 31 30 28 27

GFSNIL_sfc_30mbdewp_075.txt.gz
Dewpoint
55 57 58 59 58 58 57 57 57 56 55 55 54 53 53 52 52 52 52 52 52 52
49 53 54 55 57 57 57 56 56 56 55 53 52 52 51 50 50 51 51 51 51 51
45 48 51 52 53 54 54 55 54 52 51 50 49 49 48 48 48 49 50 50 50 50
43 44 45 47 48 50 49 49 50 48 48 47 46 46 45 45 45 45 47 48 49 49
42 42 43 43 44 45 46 46 46 45 45 44 43 43 42 42 42 42 42 44 46 47
41 41 41 42 42 44 44 43 43 43 42 41 41 41 41 41 40 41 41 42 43 45
40 41 41 41 41 42 42 41 41 41 40 40 40 40 39 39 39 39 39 40 40 41
39 40 41 40 40 40 40 40 40 39 39 39 39 39 39 39 38 38 38 39 39 41
39 40 40 40 39 39 39 39 38 38 38 38 38 39 40 39 38 38 38 38 39 40
39 39 39 39 39 38 38 38 38 37 37 37 38 39 40 40 39 39 39 39 38 39
39 39 39 39 38 38 37 37 37 37 37 37 37 39 40 40 40 38 38 38 38 37
38 38 39 38 38 37 37 36 36 36 36 36 36 39 39 39 37 37 37 37 36 35
37 38 38 38 37 37 36 36 36 35 36 36 36 38 39 38 36 35 35 34 33 35
37 37 37 37 36 36 36 36 35 35 35 36 37 37 39 39 35 34 33 32 31 30

GFSNIL_sfc_30mbdewp_078.txt.gz
Dewpoint
58 59 60 60 60 60 59 59 59 59 59 57 56 55 55 54 53 54 54 53 53 52
49 53 55 56 58 59 59 59 58 58 57 56 56 55 54 53 52 53 53 53 52 52
45 46 50 53 54 56 57 57 57 57 56 55 54 53 52 51 51 50 51 51 50 50
43 44 44 46 49 52 54 54 54 53 53 52 51 50 49 48 48 47 48 49 49 49
42 43 43 43 45 47 49 51 51 50 49 48 47 46 45 44 44 44 44 45 47 48
39 41 42 42 43 44 45 47 48 47 46 45 44 43 42 42 42 42 42 43 43 44
39 40 40 42 42 42 44 44 44 44 43 42 42 41 40 40 40 40 40 41 41 42
39 40 41 41 41 41 42 42 42 42 41 41 40 40 40 40 40 40 40 40 40 41
39 39 41 41 41 41 41 41 41 40 40 40 39 39 40 40 40 39 39 39 40 40
38 38 39 41 40 40 40 41 40 40 39 39 39 40 41 40 40 39 40 40 40 40
38 38 39 40 40 40 41 40 40 40 39 39 39 40 41 41 40 40 39 40 39 40
39 38 38 39 40 41 40 40 40 39 39 39 39 39 40 41 40 39 39 39 39 38
38 38 38 39 39 40 40 40 40 39 39 39 39 39 40 40 38 37 37 37 37 37
35 38 38 38 39 39 39 39 38 38 37 38 38 38 40 40 36 36 36 35 35 35

GFSNIL_sfc_30mbdewp_081.txt.gz
Dewpoint
57 60 60 60 60 59 59 60 60 61 61 61 60 59 58 57 56 56 55 54 54 53
47 51 54 56 58 60 60 60 60 60 60 59 58 57 56 56 55 54 54 54 54 52
44 45 47 50 53 55 57 57 59 59 58 57 56 56 55 54 54 53 53 53 53 52
43 44 44 45 47 50 53 55 56 57 56 55 55 55 54 53 52 51 50 51 51 50
39 42 43 43 44 45 47 51 53 53 53 53 53 52 50 49 48 48 48 48 49 49
39 40 39 42 43 43 44 46 50 50 50 50 50 48 47 46 45 45 44 44 45 46
38 39 40 40 41 42 43 44 46 47 48 48 47 45 44 43 42 42 42 42 43 43
38 39 40 41 41 41 42 42 44 44 44 43 43 43 42 41 41 41 41 41 41 42
38 39 39 40 41 41 42 42 42 42 42 41 41 41 41 41 41 41 40 40 41 41
38 39 39 39 40 41 41 42 42 42 41 41 41 40 41 41 41 40 40 41 40 41
37 38 39 39 40 41 42 41 42 41 41 41 41 41 42 42 40 40 40 41 41 40
35 37 38 39 39 40 41 41 41 42 41 41 41 40 42 42 41 40 40 40 40 39
33 34 36 37 38 39 40 40 40 41 41 41 41 41 41 42 41 39 39 38 38 39
29 30 34 37 38 38 38 39 40 40 40 40 40 40 41 41 40 38 37 37 36 37

GFSNIL_sfc_30mbdewp_084.txt.gz
Dewpoint
55 58 60 59 59 59 58 59 60 60 60 60 60 60 59 58 57 57 56 56 55 54
45 48 52 54 57 60 60 60 61 60 60 60 60 59 58 57 56 56 56 55 55 54
44 44 45 46 50 52 55 56 58 59 60 59 59 58 57 56 55 55 54 54 54 53
40 42 43 44 44 46 49 53 55 56 57 57 57 56 55 55 54 54 54 53 53 52
40 40 40 41 43 43 44 47 52 53 54 55 55 55 55 54 53 52 51 51 51 50
39 39 40 41 41 42 43 44 46 51 51 52 53 53 53 51 50 49 49 49 48 49
39 39 39 40 41 41 42 42 44 47 49 50 50 49 49 48 47 46 45 45 45 46
39 39 39 40 40 42 42 42 42 43 45 47 47 47 46 45 44 43 42 42 43 43
38 39 39 39 40 41 42 41 42 42 42 43 43 43 44 43 43 42 41 41 41 41
37 38 39 39 39 40 40 42 41 42 42 41 42 41 41 42 42 41 41 41 41 41
35 35 37 38 38 39 39 40 41 42 42 42 41 42 41 41 41 41 40 40 41 40
31 34 35 36 36 37 38 38 39 41 41 41 41 42 42 42 41 39 40 40 41 40
27 30 30 34 35 36 36 37 37 39 40 41 41 42 42 42 40 39 39 39 39 40
25 27 27 29 33 34 34 35 36 37 39 40 40 40 42 42 41 39 39 39 38 38

GFSNIL_sfc_30mbdewp_087.txt.gz
Dewpoint
53 56 59 59 58 58 58 58 58 59 59 59 59 60 60 59 59 58 58 57 56 55
46 47 48 52 56 59 59 60 59 59 59 60 59 60 59 58 58 57 57 56 56 55
42 43 44 46 46 49 52 54 56 57 59 59 59 59 58 58 58 57 56 56 55 54
40 40 41 42 43 44 45 46 51 53 54 56 57 57 57 57 56 55 55 55 54 54
39 39 40 40 41 42 42 44 45 50 51 53 55 56 56 55 54 54 54 53 53 53
39 39 39 40 41 42 42 42 43 46 49 50 52 54 54 54 54 54 53 53 52 51
39 39 39 39 40 41 42 42 42 43 45 48 49 51 51 51 51 51 51 51 50 49
38 39 39 39 39 40 41 42 42 42 43 44 47 48 48 48 47 47 47 46 46 47
37 37 37 38 39 39 40 40 41 41 42 42 42 43 45 46 45 45 45 44 44 43
35 35 36 36 37 37 38 39 39 40 41 41 42 42 42 43 43 43 43 43 42 42
29 31 34 34 36 36 36 37 37 39 40 41 41 42 43 43 41 41 41 41 41 41
28 27 30 30 32 34 35 35 36 37 38 40 40 42 42 43 41 39 39 40 40 40
25 25 26 28 28 31 34 34 36 35 36 37 39 41 42 43 41 39 39 39 40 41
23 23 23 25 27 26 29 32 33 32 34 36 38 39 40 41 42 40 39 39 39 39

GFSNIL_sfc_30mbdewp_090.txt.gz
Dewpoint
51 53 54 57 58 58 58 58 59 59 59 59 59 60 60 60 60 60 59 58 57 57
44 48 49 49 51 54 56 58 59 59 58 58 58 58 59 58 58 58 58 58 57 56
40 41 43 44 45 45 47 49 53 55 57 58 59 59 59 58 58 58 57 57 57 56
39 40 40 41 41 42 42 43 45 50 51 53 55 57 58 58 57 57 57 56 56 55
39 39 39 40 41 41 41 42 43 45 49 50 51 54 55 55 56 55 55 55 54 54
38 39 39 39 40 41 41 42 42 42 43 46 48 50 53 54 54 54 54 54 54 54
37 38 38 39 40 40 41 41 41 42 42 43 45 47 49 51 51 52 52 52 53 53
36 36 36 37 38 39 39 40 40 41 41 42 42 44 45 47 48 48 48 48 49 50
31 32 34 35 36 36 37 38 38 39 39 40 41 42 43 44 45 45 45 46 46 47
28 28 29 32 32 33 34 35 36 37 38 39 40 42 43 43 43 43 43 44 44 44
26 26 26 28 28 29 32 33 34 35 36 37 38 40 42 43 43 42 41 41 41 42
25 24 24 24 25 27 29 30 32 34 35 35 36 38 39 41 42 41 40 39 40 40
23 22 22 22 23 26 28 27 31 32 34 32 32 36 39 40 41 40 40 40 39 40
22 22 22 22 23 23 23 25 24 26 30 30 31 31 34 37 39 40 40 40 39 39

GFSNIL_sfc_30mbdewp_093.txt.gz
Dewpoint
49 51 52 53 54 56 57 58 59 59 59 59 59 60 60 59 60 60 59 59 59 59
44 46 47 48 49 50 52 53 56 58 58 59 59 59 59 58 59 59 58 58 58 57
39 40 42 43 43 43 45 47 50 52 53 54 57 58 58 58 58 57 58 58 57 57
39 39 40 40 41 41 42 42 43 45 49 50 51 54 55 57 57 57 57 57 56 56
39 39 39 39 40 41 41 42 42 42 43 45 48 50 52 54 55 55 55 56 56 55
36 37 37 38 39 40 40 41 41 42 42 42 43 46 48 50 52 53 54 54 54 54
34 35 36 37 37 38 39 39 40 40 41 41 42 43 44 46 47 50 51 52 52 53
30 31 32 33 34 35 35 36 38 38 38 39 40 41 43 43 43 44 46 47 48 49
26 27 28 30 30 31 32 33 35 34 36 36 38 41 42 43 42 42 43 44 45 46
25 24 24 26 26 26 28 30 30 32 34 35 36 36 38 40 42 41 41 41 42 43
25 23 23 23 23 23 25 27 28 28 32 33 34 33 36 38 40 41 41 40 40 40
24 22 22 21 22 23 25 25 25 28 29 29 32 32 32 35 36 37 39 41 40 40
24 22 22 22 22 23 23 23 24 24 25 29 28 31 32 31 35 36 36 36 39 41
22 22 22 22 22 22 22 22 21 22 23 25 27 29 31 31 31 31 33 36 37 39

GFSNIL_sfc_30mbdewp_096.txt.gz
Dewpoint
46 48 48 49 50 50 51 53 57 59 59 58 59 59 59 58 59 59 59 58 58 58
41 42 44 44 46 47 48 49 51 53 55 58 59 59 59 58 58 58 59 58 58 58
39 39 40 41 41 42 43 44 45 47 50 52 52 55 56 57 58 58 58 58 57 57
38 39 39 39 40 41 41 42 42 42 43 45 48 49 51 53 55 56 57 57 57 56
36 36 36 37 38 40 40 40 41 41 42 42 43 45 47 48 50 52 53 54 55 55
32 33 33 34 35 36 37 38 39 39 39 40 41 42 43 44 45 47 50 52 53 54
29 30 31 31 32 33 33 34 35 36 36 37 39 41 43 43 42 42 44 46 49 50
26 26 27 28 29 29 30 31 32 33 34 35 35 37 39 40 42 42 41 42 44 46
24 24 23 24 24 24 26 28 29 28 31 32 34 35 33 36 39 40 41 40 41 42
25 23 23 23 22 22 23 25 24 25 28 28 29 34 33 32 36 37 38 40 40 40
25 22 22 22 22 22 23 24 24 24 26 27 27 32 32 32 33 35 35 36 38 40
25 23 22 22 22 22 23 23 22 24 24 24 25 30 29 31 31 32 34 36 35 36
23 22 22 22 22 22 22 22 22 21 21 23 25 26 28 28 30 30 31 32 34 37
21 22 22 22 22 22 21 21 19 19 20 21 22 24 27 27 30 31 30 28 28 30

GFSNIL_sfc_30mbdewp_099.txt.gz
Dewpoint
43 45 45 45 46 47 48 48 50 53 57 58 58 58 58 58 58 58 57 57 57 57
41 41 41 42 43 44 45 46 47 48 50 52 53 55 57 58 58 58 58 57 57 58
38 38 39 40 40 40 41 42 43 44 45 47 49 50 52 53 54 56 58 58 57 57
34 34 34 34 35 37 38 39 40 41 41 42 43 45 47 48 49 50 52 54 56 57
31 31 31 32 32 33 33 34 34 35 37 39 41 42 43 43 43 45 46 49 51 52
27 28 28 29 30 31 31 32 32 33 33 34 37 40 41 41 42 42 42 43 44 47
25 25 26 26 27 27 29 29 29 31 32 33 34 35 34 36 38 39 40 41 42 43
24 24 23 23 24 24 26 27 27 26 28 29 29 33 33 33 35 35 36 39 40 41
24 23 23 23 22 22 23 25 25 24 26 27 25 30 33 33 33 34 34 33 37 39
25 23 23 23 23 22 22 24 24 24 24 24 25 28 31 31 32 32 32 34 34 34
24 24 23 23 22 22 22 23 23 22 22 23 21 26 29 28 31 32 32 32 33 34
24 23 23 23 23 23 23 23 23 23 22 21 21 25 25 26 28 29 30 31 32 31
21 21 21 22 22 22 23 23 23 22 22 21 21 22 25 25 27 27 29 31 29 29
20 20 20 22 22 22 22 22 20 20 20 19 20 21 24 26 26 28 29 29 27 26

GFSNIL_sfc_30mbdewp_102.txt.gz
Dewpoint
43 44 44 44 44 44 45 46 47 49 50 51 52 55 59 59 58 58 57 56 55 55
40 40 41 41 42 42 43 43 45 46 46 47 49 50 52 53 54 57 57 56 56 56
33 34 31 31 31 32 34 37 39 41 43 44 45 46 48 49 49 51 52 54 56 56
26 27 26 25 25 27 27 27 28 30 35 39 41 43 44 44 44 45 46 48 50 52
22 22 21 22 23 22 22 23 24 25 26 27 32 35 37 39 40 41 42 43 44 46
20 19 19 20 20 21 21 21 21 22 23 23 25 27 26 26 28 30 34 38 40 42
20 20 20 20 19 19 20 19 19 19 21 23 24 27 30 29 28 28 29 31 35 37
22 21 21 21 21 21 21 20 20 19 19 20 19 20 30 30 28 28 28 28 29 33
23 22 22 22 22 21 20 20 20 19 19 19 17 24 28 30 27 27 26 25 27 30
22 22 22 21 20 20 19 19 19 18 17 16 16 20 24 27 25 24 24 26 27 27
21 20 20 20 20 20 19 19 19 19 18 18 17 20 23 24 22 22 23 25 26 26
20 19 19 19 20 20 21 21 21 21 20 19 19 19 22 22 21 22 22 20 23 26
19 19 18 18 19 20 20 20 20 20 20 20 20 19 19 22 21 20 19 20 22 24
18 18 18 19 19 20 20 19 19 18 17 15 14 16 19 23 23 21 21 21 21 22

GFSNIL_sfc_30mbdewp_105.txt.gz
Dewpoint
41 43 43 43 45 44 44 44 44 45 46 47 48 48 50 51 53 57 57 57 57 56
37 36 36 36 35 36 36 34 37 41 44 45 46 46 47 48 47 49 51 53 55 56
27 28 27 26 24 24 24 25 26 27 31 37 41 44 45 45 45 45 47 47 48 50
22 22 22 21 21 21 20 21 21 22 23 25 27 28 30 35 39 40 43 44 45 46
20 20 19 19 19 20 20 19 20 21 22 22 24 27 27 26 27 27 29 32 37 41
19 18 18 19 18 18 18 18 18 18 18 20 20 21 25 27 27 27 27 28 31 34
20 19 20 20 20 20 19 18 18 17 17 17 17 18 24 26 26 26 27 26 28 29
22 21 21 21 20 19 18 17 17 17 17 17 16 17 25 25 25 24 25 25 24 26
20 21 21 20 18 17 18 17 17 17 16 16 14 17 23 25 24 22 22 23 25 26
20 18 17 17 17 18 18 17 17 17 17 16 16 17 22 24 22 20 20 22 24 24
18 17 17 17 18 17 18 18 18 18 19 19 18 20 21 22 22 20 21 23 23 21
18 17 17 18 18 18 19 20 21 20 20 20 21 20 22 21 22 22 20 18 19 20
18 17 17 17 18 20 20 20 21 20 21 20 20 18 17 20 22 20 18 18 19 20
16 16 16 17 18 20 20 19 19 19 17 14 13 14 17 21 23 23 23 23 21 21

GFSNIL_sfc_30mbdewp_108.txt.gz
Dewpoint
37 39 38 37 41 41 38 39 39 42 44 45 46 46 47 46 46 47 47 48 50 53
31 31 31 30 31 30 30 28 31 30 31 37 41 42 43 42 43 43 44 45 46 48
24 24 23 23 21 22 22 22 24 25 26 27 29 31 34 39 39 39 41 42 43 45
22 21 21 20 20 20 21 20 20 21 23 23 24 27 30 30 30 31 34 37 38 41
20 20 19 19 20 20 19 20 19 19 19 20 22 22 25 27 29 28 29 30 31 34
20 20 20 20 21 21 20 20 19 19 18 18 19 20 24 25 27 26 27 28 27 29
22 21 21 22 22 21 20 19 18 18 18 18 17 22 24 25 25 26 25 26 27 27
22 22 22 22 21 19 19 19 18 18 19 18 17 16 22 24 25 24 23 23 26 26
21 21 20 19 19 19 19 19 18 18 19 18 18 19 20 23 24 23 22 22 24 26
20 19 18 18 18 19 18 19 19 19 20 20 20 21 22 23 23 24 23 22 23 24
19 19 19 19 19 19 19 19 20 21 22 21 21 22 23 24 24 23 23 23 23 22
20 19 19 19 19 20 20 21 22 22 22 21 21 23 21 20 21 23 23 21 20 20
19 19 18 18 18 19 21 21 22 21 21 22 21 21 17 18 22 22 23 24 24 24
17 17 16 17 18 18 19 19 19 18 17 16 16 18 19 21 22 23 23 23 23 23

GFSNIL_sfc_30mbdewp_111.txt.gz
Dewpoint
32 33 33 33 32 31 30 32 34 32 34 36 41 44 43 43 43 43 44 43 43 44
26 25 26 25 27 29 27 24 26 28 28 29 31 33 36 40 39 40 41 41 41 43
22 22 21 21 20 20 21 22 22 23 24 25 26 27 32 33 35 34 38 39 38 40
21 21 20 20 20 20 20 20 20 20 20 20 21 23 25 26 28 29 30 31 32 33
20 20 20 21 21 21 20 20 19 19 19 19 19 21 23 23 25 26 27 28 29 29
21 21 21 21 22 21 20 19 18 18 19 19 19 20 24 24 24 25 24 25 26 28
22 22 22 23 22 20 19 19 19 19 19 19 19 18 22 23 24 25 24 23 23 26
21 22 22 19 19 19 20 20 19 19 20 20 19 18 23 24 24 24 24 23 23 24
21 20 19 19 19 19 19 19 19 20 21 21 21 23 24 25 24 24 24 23 23 24
20 19 19 19 19 19 19 19 20 21 22 21 22 22 23 24 24 24 22 23 24 23
20 19 20 20 19 19 19 20 21 21 22 21 21 22 23 23 22 22 23 23 23 22
20 19 19 18 18 18 19 20 20 22 21 21 21 24 20 20 21 22 22 23 23 24
19 18 17 17 17 18 19 20 21 20 20 21 17 20 21 22 22 22 23 23 24 24
17 16 16 16 17 18 18 18 18 17 17 17 19 21 23 23 23 23 23 23 23 24

GFSNIL_sfc_30mbdewp_114.txt.gz
Dewpoint
28 29 29 31 32 30 29 29 30 30 30 30 32 35 37 40 40 41 40 41 40 42
24 23 23 23 24 25 26 23 26 27 27 28 28 30 33 33 36 38 39 40 40 40
21 21 20 20 20 20 21 21 21 21 21 22 22 25 26 26 29 29 32 33 33 33
20 20 21 21 21 21 20 20 19 19 19 19 19 22 24 24 25 24 25 27 28 30
21 21 21 21 22 22 19 20 19 19 19 19 19 20 23 23 24 24 24 23 25 24
22 22 22 22 22 20 19 19 19 19 19 20 20 19 22 23 24 24 24 24 23 23
21 22 22 21 19 19 19 20 19 19 20 21 20 19 21 24 24 24 24 25 24 24
21 22 20 19 19 19 20 19 20 20 21 22 21 21 25 25 25 24 24 23 23 24
22 20 19 19 19 19 19 19 20 20 21 21 21 24 25 25 24 24 24 22 23 24
20 19 19 19 19 19 18 19 20 20 21 21 21 23 24 24 23 23 22 23 23 23
20 19 19 19 18 18 18 18 20 20 21 21 20 23 22 22 22 22 23 23 23 23
20 18 18 17 17 18 18 18 19 21 20 19 20 22 23 24 23 23 23 23 24 25
19 17 16 17 17 18 18 19 20 19 19 19 18 23 23 24 24 23 23 24 24 24
17 16 16 17 17 17 18 18 18 17 17 18 20 21 23 23 23 22 23 23 23 23

GFSNIL_sfc_30mbdewp_117.txt.gz
Dewpoint
27 28 27 26 27 27 28 28 28 29 29 29 29 32 33 37 34 38 39 39 38 38
23 22 21 21 22 22 22 22 23 22 23 23 24 28 28 30 26 30 31 36 34 34
21 20 21 21 21 21 20 20 20 20 20 20 20 24 24 25 26 24 25 27 28 29
20 20 21 21 22 21 19 20 19 19 19 19 19 20 23 24 25 24 24 24 24 24
21 21 21 22 22 21 19 19 19 19 19 20 20 20 22 22 24 24 24 24 23 22
22 22 22 22 21 19 19 20 19 19 20 21 20 20 20 23 24 24 24 24 23 23
21 21 22 20 19 18 19 19 19 20 20 21 21 21 22 25 25 25 24 24 23 23
21 22 21 19 19 19 19 19 20 20 21 21 21 20 25 26 25 24 24 23 23 24
21 22 20 19 19 19 19 19 20 20 21 20 21 24 25 25 24 24 23 22 23 24
22 20 19 19 18 18 18 19 18 19 20 20 20 24 24 24 22 22 22 23 23 23
21 20 19 18 17 17 18 18 19 19 20 20 19 23 23 25 24 23 23 23 23 24
21 19 17 16 16 17 17 18 19 20 19 18 19 22 23 25 24 23 23 23 24 24
20 18 16 16 17 17 18 18 20 19 18 19 18 22 23 24 24 23 22 23 24 24
18 17 16 16 17 17 18 18 18 17 17 17 19 22 24 24 24 23 23 23 23 23